FENGYUN 1C DEB

Satellite information

Favourite Embed

Satellite Type and Status

DEBRISIN ORBIT

Key statistics

Satellite FENGYUN 1C DEB at a glance.

Uptime

9554

Days in orbit

Revolutions

≈ 14.5

Per day

Orbit

SSO

Sun Synchronous Orbit

Inclination

99.5

Latest

Satellite identification and parameters

Extended collection of information and parameters for FENGYUN 1C DEB.

Object identification

Identified? True

Debris? True

Object name: FENGYUN 1C DEB

International designator: 1999-025EML

Object number (NORAD): 37719

Object ID (CCSDS): 37719

Country: PEOPLES REPUBLIC OF CHINA (PRC)

Current information (Y/N): Y

RCS size: SMALL

Orbital parameters

Period: 99.025 minutes

Inclination: 99.5066 deg

SMA: 7090.18 km

Apoapsis: 744.634 km

Periapsis: 679.455 km

RAAN: 184.115 deg

Eccentricy: 0.0045964

Argument of periapsis: 35.4941 deg

Mean anomaly: 142.4758 deg

Mean motion: 14.54175807 rev/day

Mean motion (dot): 0.00003343 rev/day2

B* drag term: 0.00079252 1/REarth

Two-line elements (TLE)

Creation date: June 30, 2025, 3:44 a.m.

Reference frame: TEME

Reference center: EARTH

Epoch: June 29, 2025, 6:44 p.m. UTC

TLE line 0: 0 FENGYUN 1C DEB

TLE line 1: 1 37719U 99025EML 25180.78106212 .00003343 00000-0 79252-3 0 9996

TLE line 2: 2 37719 99.5066 184.1150 0045964 35.4941 142.4758 14.54175807647929

Live tracking on map

Real-time ground track for satellite FENGYUN 1C DEB.

In-orbit conjunctions

A list of the most updated potential collisions computed for object FENGYUN 1C DEB.

Target Orbit TCA Probability of collision Miss distance Type
FENGYUN 1C DEB SSO 2024-11-10 08:30:52 0.000119934 640.0 (m) DEBRIS
NOAA 16 DEB SSO 2024-06-09 03:34:08 0.000164744 108.0 (m) DEBRIS

Associated space launch

Chinese polar orbiting meteorological satellite

FENGYUN 1C DEB was lifted into orbit during the mission ‘Long March 4B | Feng Yun 1C’, on board a Long March 4B space rocket.

The launch took place on May 10, 1999, 1:33 a.m. from Launch Complex 7.

For more information about the launch, click the button.

Launch to space Long March 4B | Feng Yun 1C
Long March 4B | Feng Yun 1C

Agency: N/A

Status: Launch Successful

Launch date: May 10, 1999, 1:33 a.m. UTC

Rocket: Long March 4B

Launch pad: Launch Complex 7

Location: Taiyuan Satellite Launch Center, People's Republic of China

...

Latest news about this satellite

There are no fresh news available about this satellite. Check back as we update our databases every day.


Newsletter sign-up

Weekly statistics, charts and insights to help you stay on top of the space industry.